Volver al catálogo

STARLINK-37536

ActivoComunicacionesVLEO
NORAD 69508·PAYLOAD·🇺🇸 United States

Lanzado Jun 12, 2026 desde Cape Canaveral Space Force Station

Loading…

Próximos Pases (próximas 24 horas)

TLE

ActualizadoSource: CelesTrak SupGP

Época: Sep 15, 2026, 03:15 UTC

1 69508C 26133A   26258.13590278 -.00039863  00000+0 -11776-2 0  2583
2 69508  53.1575 255.1218 0001297  90.3157   0.7338 15.34414177    13

Sigue STARLINK-37536 en tiempo real con AllMySat

Download on the App Store